This is the latest recevied weather packets stored in our database for station/object IK2ILW-4. If no packets are shown the sender has not sent any weather packets the latest 10 day(s).
| Time | Temp. | Humidity | Pressure | Rain* | Wind** | Luminosity | Snow |
|---|---|---|---|---|---|---|---|
| 1787764055 | 20° C | 81% | 1023.1 hPa | 0.51 mm | - | 53 W/m² | - |
| 1787763756 | 20° C | 81% | 1023.1 hPa | 0.51 mm | - | 58 W/m² | - |
| 1787763470 | 20.56° C | 80% | 1023 hPa | 0.51 mm | - | 54 W/m² | - |
| 1787763155 | 20.56° C | 78% | 1023 hPa | 0.51 mm | - | 54 W/m² | - |
| 1787762856 | 21.11° C | 78% | 1023 hPa | 0.51 mm | - | 107 W/m² | - |
| 1787762567 | 21.11° C | 77% | 1022.8 hPa | 0.51 mm | - | 134 W/m² | - |
| 1787762264 | 21.11° C | 76% | 1022.8 hPa | 0.51 mm | - | 67 W/m² | - |
| 1787761973 | 21.11° C | 79% | 1022.8 hPa | 0.51 mm | - | 204 W/m² | - |
| 1787761667 | 20.56° C | 80% | 1022.9 hPa | 0.51 mm | - | 264 W/m² | - |
| 1787761364 | 20° C | 81% | 1022.9 hPa | 0.51 mm | - | 299 W/m² | - |
| 1787761072 | 19.44° C | 82% | 1022.9 hPa | 0.51 mm | - | 141 W/m² | - |
| 1787760766 | 19.44° C | 82% | 1022.9 hPa | 0.51 mm | - | 93 W/m² | - |
| 1787760462 | 20° C | 82% | 1022.9 hPa | 0.51 mm | - | 91 W/m² | - |
| 1787760170 | 20° C | 81% | 1022.9 hPa | 0.51 mm | - | 102 W/m² | - |
| 1787759872 | 20.56° C | 80% | 1022.8 hPa | 0.51 mm | - | 84 W/m² | - |
| 1787759562 | 20.56° C | 79% | 1022.8 hPa | 0.51 mm | - | 91 W/m² | - |
| 1787759270 | 20.56° C | 79% | 1022.8 hPa | 0.51 mm | - | 118 W/m² | - |
| 1787758966 | 20.56° C | 79% | 1022.4 hPa | 0.51 mm | - | 142 W/m² | - |
| 1787758654 | 20.56° C | 77% | 1022.4 hPa | 0.51 mm | - | 218 W/m² | - |
| 1787758355 | 20.56° C | 79% | 1022.4 hPa | 0.51 mm | - | 239 W/m² | - |
| 1787758072 | 20° C | 80% | 1022.4 hPa | 0.51 mm | - | 197 W/m² | - |
| 1787757768 | 20° C | 80% | 1022.4 hPa | 0.51 mm | - | 148 W/m² | - |
| 1787757455 | 20° C | 80% | 1022.4 hPa | 0.51 mm | - | 185 W/m² | - |
| 1787757165 | 20° C | 79% | 1022.9 hPa | 0.51 mm | - | 193 W/m² | - |
| 1787756862 | 20.56° C | 80% | 1022.9 hPa | 0.51 mm | - | 174 W/m² | - |
* Rain since midnight (hover to see other rain measurements)
** Current wind speed in m/s (hover to see current wind gust speed)